Terminal Aerodrome Forecast
Issued by NWS Sterling, VA

Current Version | Previous Version | Text Only | Print | Product List | Glossary Off
Versions: 1 2 3 4 5 6 7 8 9 10 11 12 13 14 15 16 17 18 19 20 21 22

000
FTUS41 KLWX 281100
TAFDCA
TAF
KDCA 281133Z 2812/2912 24007KT P6SM FEW090
     FM281400 29013G26KT P6SM SCT050 BKN090
     FM290000 31013KT P6SM BKN090
     FM290600 31009KT P6SM BKN090
     FM290800 30007KT P6SM SCT090=

USA.gov is the U.S. government's official web portal to all federal, state and local government web resources and services.